Regional Weather Roundup
Issued by NWS Newport/Morehead, NC

Home | Current Version | Previous Version | Text Only | Print | Product List | Glossary On
Versions: 1 2 3 4 5 6 7 8 9 10 11 12 13 14 15 16 17 18 19 20 21 22 23 24 25 26 27 28 29 30 31 32 33 34 35 36 37 38 39 40 41 42 43 44 45 46 47 48 49 50
665
ASUS42 KMHX 222325
RWRMHX
WEATHER ROUNDUP FOR EASTERN NORTH CAROLINA
NATIONAL WEATHER SERVICE NEWPORT/MOREHEAD CITY NC
700 PM EDT TUE MAY 22 2018

NOTE: "FAIR" INDICATES FEW OR NO CLOUDS BELOW 12,000 FEET
WITH NO SIGNIFICANT WEATHER AND/OR OBSTRUCTIONS TO VISIBILITY

NCZ015>017-031-032-045>047-102-103-230000-
NORTH COAST

CITY           SKY/WX    TMP DP  RH WIND       PRES   REMARKS
EDENTON        FAIR      76  72  86 SE3       30.05F
ELIZABETH CITY FAIR      73  71  93 S5        30.04F
KITTY HAWK     FAIR      72  69  92 CALM      30.04F
MANTEO         FAIR      74  68  81 W7        30.05F

$$

NCZ045>047-081-094-103-104-230000-
CENTRAL COAST

CITY           SKY/WX    TMP DP  RH WIND       PRES   REMARKS
FRISCO         FAIR      76  72  87 SW12G18   30.09S

$$

NCZ095-097-098-100-101-230000-
SOUTHERN COAST

CITY           SKY/WX    TMP DP  RH WIND       PRES   REMARKS
BEAUFORT       FAIR      76  72  87 S12       30.09F
CEDAR ISLAND   NOT AVBL
JACKSONVILLE   CLOUDY    78  69  73 S12G17    30.07S
PINEY ISLAND   NOT AVBL
WILMINGTON     FAIR      80  67  64 SW13      30.08S


$$

NCZ011>013-027>030-043-044-078>080-089-090>093-098-230000-
COASTAL PLAIN

CITY           SKY/WX    TMP DP  RH WIND       PRES   REMARKS
AHOSKIE        FAIR      73  73 100 S3        30.04F
CLINTON        FAIR      82  69  64 S5        30.06S
ELIZABETHTOWN  CLOUDY    79  68  67 SW9       30.07S
GOLDSBORO      FAIR      82  67  60 S9        30.03S
GREENVILLE     FAIR      79  73  83 SE3       30.06S
HAVELOCK       NOT AVBL
KENANSVILLE    FAIR      79  66  65 S5        30.06S
KINSTON        SUNNY     82  64  54 S10       30.06S
NEW BERN       FAIR      78  67  68 S9        30.08R
RICHLANDS      PTSUNNY   79  72  79 S8        30.07F
ROCKY MOUNT    FAIR      80  71  74 VRB5      30.04S
WASHINGTON     FAIR      79  69  71 CALM      30.05F
WHITEVILLE     PTSUNNY   78  68  72 S8        30.07F

$$

AMZ130-135-150-152-154-156-158-170-250-252-270-ANZ085-086-088-633-658-670-230000-
MARINE OBSERVATIONS

STATION/POSITION TIME  TEMP    WIND        PRES    WAVE   SWELL
                       AIR SEA DIR/SP/G            HT/PER HT/PER
                 (UTC) (F)     (DEG/KT/KT) (MB)    (FT/S) (FT/S)
CHESAPEAKE LIGHT NOT AVBL
64 E VA BEACH    2250   71 70  220/ 12/ 14 1017.3    3/ 8   2/ 8
DUCK             2300   75 67  230/  7/ 10 1016.7
2 E DUCK         2230      68                N/A     2/ 9
OREGON INLET     2300   74 78  280/  8/ 11 1017.8
13E OREGON INLT  2248      69                N/A     3/ 9   2/ 9
HATTERAS CG      2300   75 76  220/ 10/ 14 1018.4
DIAMOND BUOY     2300   76 74  220/ 12/ 16 1019.3
CAPE LOOKOUT     2300          210/  9/ 13 1019.3
BEAUFORT LAB     2300   76 77  210/  9/ 12 1019.1
30 SE NEW RVR IN 2308   76     190/ 10/ 14 1019.2
30 SE NEW RVR IN 2230      76                N/A     4/ 9
27 SE WRIGHTSVLE 2308   75 75  200/ 10/ 14 1019.3
5 SE WRIGHTSVLE  2308   74 74  120/ 10/ 14 1018.3
225 S CAPE HAT   2310          180/ 10/ 12 1020.9
41 SE CHARLESTON 2300      75  200/  8/ 10 1019.2

$$




USA.gov is the U.S. government's official web portal to all federal, state and local government web resources and services.